Location: Burgberg
(50.1428°N, 11.0671°E)
Time: 04:41:48
(UTC+00:00)

STARLINK-38 - Pass Details

Date: 26 January 2020
Orbit: 528 x 531 km, 53.0° (Epoch: 26 February)

Event Time Altitude Azimuth Distance (km) Brightness Sun altitude
Exits shadow 05:40:26 19° 278° (W) 1,287 4.9 -12.4°
Maximum altitude 05:43:08 58° 353° (N) 623 3.7 -12.0°
Drops below altitude 10° 05:47:07 10° 74° (ENE) 1,782 7.2 -11.4°
Sets 05:49:22 0° 78° (ENE) 2,673 8.3 -11.1°
